[[{"header":{"parameterUnit":"m.s-1","parameterCategory":1,"la1":30.2991,"la2":30.254,"lo1":-89.0895,"lo2":-89.0444,"dy":0.0017,"dx":0.0017,"nx":28,"ny":28,"refTime":"2023-10-07T09:00:00:Z","depth":0,"parameterNumber":2,"parameterNumberName":"U-component_of_WINDS"},"data":[0,0,0,0,0,0,0,0,0,0,0,0,0,0,0,0,0,0,0,0,0,0,0,0,0,0,0,0,0,0,0,0,0,0,0,0,0,0,0,0,0,0,0,0,0,0,0,0,0,0,0,0,0,0,0,0,0,0,0.6104,0.6104,0,0.6146,0.6147,0.6147,0.6165,0.6165,0.6165,0.6165,0.621,0.6211,0.6212,0,0,0,0,0,0,0,0,0,0,0,0,0,0.604,0.6041,0.6104,0.6104,0.6105,0.6146,0.6147,0.6147,0.6165,0.6165,0.6165,0.6165,0.6209,0.6211,0.6212,0,0,0,0,0,0,0,0,0,0,0,0,0,0.6073,0.6041,0.6104,0.6119,0.6121,0.6146,0.6147,0.6147,0.6165,0.6165,0.6165,0.6165,0.6209,0.6211,0.6212,0.6226,0,0,0.6218,0.6219,0,0,0,0,0,0,0,0,0.6072,0.6076,0.6116,0.6118,0.612,0.615,0.6141,0.6174,0.6165,0.6148,0.6165,0.6165,0.619,0.6193,0.6202,0.6228,0.623,0.6218,0.6219,0.622,0.6221,0,0,0,0,0,0,0,0.6069,0.6074,0.6121,0.6117,0.6119,0.6124,0.6129,0.6147,0.6169,0.615,0.6151,0.6156,0.6191,0.62,0.6203,0.6231,0.6218,0.622,0.6221,0.6222,0.6272,0.6272,0,0,0,0,0,0,0.6064,0.6072,0.6119,0.6122,0.6095,0.6125,0.613,0.6141,0.6169,0.6173,0.6156,0.6157,0.6197,0.6201,0.6205,0.6223,0.622,0.6222,0.6223,0.6272,0.6272,0.6272,0,0,0,0,0,0,0.6063,0.6068,0.6118,0.6097,0.6104,0.6126,0.6138,0.6142,0.615,0.6174,0.6178,0.6161,0.6197,0.6202,0.6221,0.6225,0.6223,0.6225,0.6271,0.6272,0.6272,0.626,0,0,0,0,0,0,0.6061,0.6068,0.6073,0.6097,0.6105,0.6133,0.6138,0.6142,0.6153,0.6155,0.6179,0.6183,0.6197,0.6218,0.6223,0.6227,0.6226,0.6271,0.6272,0.6272,0.626,0.6259,0.6259,0,0,0,0,0,0.6059,0.6068,0.6073,0.6079,0.6112,0.6133,0.6137,0.6152,0.6154,0.6159,0.6174,0.6183,0.6224,0.622,0.6225,0.623,0.6271,0.6271,0.6272,0.626,0.626,0.6259,0,0,0,0,0,0,0.6043,0.6071,0.6077,0.6095,0.6111,0.6136,0.6143,0.6151,0.6168,0.6169,0.6187,0.6193,0.621,0.6222,0.6217,0.6246,0.6248,0.625,0.6237,0.6237,0.6237,0.6233,0.6228,0,0,0,0,0,0.6042,0.6056,0.608,0.6093,0.6101,0.6121,0.613,0.6141,0.6159,0.6166,0.6182,0.62,0.6217,0.6228,0.6244,0.6262,0.6268,0.6268,0.6268,0.6267,0.6269,0.6279,0.628,0.6274,0.6274,0.6274,0,0,0.6039,0.6056,0.6064,0.6091,0.6105,0.6119,0.6126,0.6142,0.6153,0.6168,0.6187,0.62,0.6221,0.6239,0.6248,0.625,0.6272,0.6268,0.6268,0.6269,0.628,0.628,0.6281,0.6274,0.6274,0.6274,0,0,0.6042,0.6056,0.6069,0.6083,0.6104,0.6117,0.612,0.6144,0.6152,0.6172,0.6183,0.6197,0.6226,0.624,0.6252,0.626,0.6269,0.6265,0.6264,0.6274,0.6274,0.6275,0.6278,0.6279,0.6266,0.6266,0.6266,0,0.6037,0.6059,0.6075,0.6089,0.6101,0.6115,0.6128,0.6141,0.6166,0.6174,0.6176,0.6212,0.6227,0.6249,0.6251,0.626,0.6264,0.6262,0.6273,0.6273,0.6274,0.6278,0.6279,0.6266,0.6266,0.6266,0.6266,0,0.6051,0.6066,0.6074,0.6098,0.611,0.6124,0.6142,0.6153,0.6162,0.6175,0.6195,0.6213,0.6234,0.624,0.625,0.6264,0.6264,0.6269,0.6272,0.6274,0.6277,0.6279,0.6265,0.6265,0.6265,0.6266,0,0,0.6045,0.6078,0.608,0.6092,0.6116,0.6128,0.6143,0.6163,0.6172,0.619,0.6203,0.6227,0.6231,0.6244,0.6255,0.6264,0.627,0.6268,0.6268,0.6267,0.6287,0.6283,0.6284,0.6275,0.6276,0.6276,0.6285,0,0.6051,0.6078,0.6093,0.6113,0.6128,0.6142,0.6155,0.6171,0.6184,0.6199,0.6213,0.623,0.6234,0.6242,0.6251,0.6267,0.6274,0.6267,0.6288,0.6289,0.6282,0.6286,0.6282,0.629,0.6287,0.6287,0.6287,0,0.6062,0.6079,0.6101,0.6124,0.6131,0.6142,0.6162,0.6175,0.6195,0.6203,0.6217,0.6229,0.6245,0.6247,0.627,0.6265,0.6275,0.6284,0.6284,0.6287,0.6288,0.6289,0.6293,0.6294,0.6289,0.6289,0.6289,0,0.6056,0.6084,0.6101,0.611,0.6137,0.6145,0.6157,0.6176,0.6187,0.6205,0.6212,0.6232,0.6242,0.6257,0.6274,0.6273,0.6295,0.6298,0.6303,0.6303,0.6307,0.6307,0.6313,0.6314,0.6314,0.6314,0.6314,0,0.6061,0.6074,0.6098,0.6109,0.6124,0.6141,0.6156,0.6169,0.6186,0.6199,0.6213,0.6225,0.6246,0.6261,0.6274,0.6291,0.6296,0.6304,0.6307,0.6303,0.6302,0.6309,0.6309,0.6314,0.6314,0.6314,0.6314,0,0.6057,0.6074,0.6093,0.6117,0.6124,0.6134,0.6155,0.6165,0.6179,0.6196,0.6201,0.6222,0.6241,0.6258,0.6283,0.6292,0.631,0.6314,0.6303,0.6305,0.6309,0.6308,0.632,0.6322,0.6321,0.6321,0.6321,0,0.6059,0.607,0.6095,0.6105,0.6116,0.6132,0.6143,0.6161,0.6172,0.6195,0.6203,0.6223,0.6239,0.6269,0.6286,0.6306,0.6311,0.6313,0.6314,0.6309,0.6311,0.631,0.6311,0.6313,0.6313,0.6313,0.6313,0,0.6062,0.607,0.6086,0.6104,0.6118,0.6134,0.615,0.6157,0.6178,0.619,0.6209,0.6222,0.6247,0.6267,0.6288,0.6301,0.631,0.6313,0.6315,0.631,0.6304,0.6307,0.6302,0.6312,0.6312,0.6312,0.6312,0.6312,0.6061,0.6071,0.609,0.6108,0.6122,0.6137,0.6148,0.6163,0.6179,0.6201,0.621,0.6229,0.6249,0.6279,0.6291,0.6307,0.6309,0.6312,0.6313,0.6314,0.6313,0.6301,0.6311,0.6311,0.6311,0.6311,0.6311,0,0.6064,0.6078,0.6093,0.6116,0.6129,0.6137,0.6155,0.6167,0.6183,0.62,0.6216,0.6238,0.6257,0.6277,0.6297,0.6306,0.6311,0.631,0.631,0.6313,0.631,0.6306,0.6306,0.6306,0.6306,0.6306,0.6306,0.6306,0.6068,0.6085,0.6095,0.6119,0.6133,0.6151,0.6161,0.6175,0.6189,0.6213,0.6229,0.6241,0.6259,0.6281,0.6299,0.6304,0.6311,0.6309,0.6316,0.6313,0.6313,0.6313,0.631,0.6311,0.6311,0.6318,0.6318,0.6318]},{"header":{"parameterUnit":"m.s-1","parameterCategory":1,"la1":30.2991,"la2":30.254,"lo1":-89.0895,"lo2":-89.0444,"dy":0.0017,"dx":0.0017,"nx":28,"ny":28,"refTime":"2023-10-07T09:00:00:Z","depth":0,"parameterNumber":3,"parameterNumberName":"V-component_of_WINDS"},"data":[0,0,0,0,0,0,0,0,0,0,0,0,0,0,0,0,0,0,0,0,0,0,0,0,0,0,0,0,0,0,0,0,0,0,0,0,0,0,0,0,0,0,0,0,0,0,0,0,0,0,0,0,0,0,0,0,0,0,-1.0588,-1.0588,0,-1.0642,-1.0643,-1.0643,-1.0682,-1.0683,-1.0683,-1.0683,-1.0738,-1.0739,-1.074,0,0,0,0,0,0,0,0,0,0,0,0,0,-1.0518,-1.0519,-1.0588,-1.0588,-1.0589,-1.0642,-1.0643,-1.0643,-1.0682,-1.0683,-1.0683,-1.0683,-1.0737,-1.0739,-1.074,0,0,0,0,0,0,0,0,0,0,0,0,0,-1.0558,-1.052,-1.0588,-1.0615,-1.0618,-1.0642,-1.0643,-1.0644,-1.0682,-1.0683,-1.0683,-1.0684,-1.0737,-1.0739,-1.074,-1.0742,0,0,-1.0746,-1.0746,0,0,0,0,0,0,0,0,-1.0556,-1.0561,-1.061,-1.0613,-1.0616,-1.0656,-1.0638,-1.0676,-1.0682,-1.0658,-1.0683,-1.0684,-1.071,-1.0714,-1.0723,-1.0744,-1.0746,-1.0746,-1.0747,-1.0748,-1.0748,0,0,0,0,0,0,0,-1.0553,-1.0559,-1.0609,-1.0611,-1.0615,-1.0625,-1.0631,-1.0646,-1.068,-1.066,-1.0663,-1.0669,-1.0712,-1.0721,-1.0725,-1.0747,-1.0746,-1.0747,-1.0748,-1.0749,-1.0775,-1.0775,0,0,0,0,0,0,-1.0546,-1.0556,-1.0607,-1.0611,-1.0587,-1.0625,-1.0632,-1.0643,-1.068,-1.0687,-1.0668,-1.067,-1.0718,-1.0723,-1.0727,-1.0733,-1.0748,-1.0749,-1.075,-1.0775,-1.0775,-1.0775,0,0,0,0,0,0,-1.0544,-1.055,-1.0605,-1.0584,-1.0592,-1.0626,-1.0637,-1.0643,-1.0653,-1.0687,-1.0693,-1.0672,-1.0719,-1.0724,-1.0738,-1.0735,-1.075,-1.0752,-1.0776,-1.0775,-1.0775,-1.0743,0,0,0,0,0,0,-1.0542,-1.0549,-1.055,-1.0584,-1.0593,-1.0615,-1.0637,-1.0644,-1.0656,-1.0659,-1.0692,-1.0697,-1.072,-1.0736,-1.074,-1.0738,-1.0753,-1.0776,-1.0776,-1.0775,-1.0745,-1.0742,-1.0739,0,0,0,0,0,-1.054,-1.0538,-1.0549,-1.0555,-1.0594,-1.0615,-1.062,-1.0646,-1.0656,-1.0657,-1.0679,-1.0696,-1.0735,-1.0737,-1.0742,-1.074,-1.0777,-1.0776,-1.0775,-1.0746,-1.0742,-1.0739,0,0,0,0,0,0,-1.0501,-1.0543,-1.0556,-1.0565,-1.0586,-1.0622,-1.0623,-1.0641,-1.0659,-1.0662,-1.0693,-1.07,-1.0711,-1.0727,-1.0728,-1.0745,-1.0758,-1.0758,-1.0734,-1.0731,-1.0728,-1.0724,-1.0754,0,0,0,0,0,-1.0494,-1.0507,-1.0543,-1.0547,-1.0558,-1.0589,-1.0599,-1.0617,-1.064,-1.0649,-1.0672,-1.0694,-1.0711,-1.0722,-1.0739,-1.0747,-1.0756,-1.0749,-1.0746,-1.0744,-1.0744,-1.0752,-1.075,-1.0772,-1.0772,-1.0772,0,0,-1.0478,-1.0503,-1.0509,-1.054,-1.0559,-1.0573,-1.0596,-1.0609,-1.062,-1.0651,-1.0666,-1.0684,-1.0711,-1.0722,-1.0729,-1.0736,-1.074,-1.0743,-1.074,-1.0742,-1.0751,-1.0748,-1.0747,-1.0772,-1.0772,-1.0772,0,0,-1.0458,-1.0477,-1.0485,-1.0503,-1.0532,-1.0553,-1.0555,-1.0588,-1.0601,-1.0617,-1.0642,-1.0656,-1.0684,-1.0703,-1.0716,-1.0706,-1.0723,-1.0711,-1.0696,-1.0703,-1.0702,-1.07,-1.0698,-1.0697,-1.071,-1.071,-1.071,0,-1.0436,-1.0458,-1.0486,-1.0499,-1.0513,-1.0543,-1.0551,-1.0568,-1.06,-1.0609,-1.0617,-1.0656,-1.0675,-1.0693,-1.0691,-1.07,-1.0704,-1.0707,-1.07,-1.0699,-1.0698,-1.0696,-1.0695,-1.0709,-1.0709,-1.0709,-1.0709,0,-1.043,-1.0445,-1.0447,-1.0479,-1.0493,-1.0503,-1.0534,-1.0545,-1.0563,-1.0584,-1.0601,-1.0626,-1.065,-1.0656,-1.0672,-1.0677,-1.0681,-1.0694,-1.0708,-1.0693,-1.0693,-1.0692,-1.0706,-1.0707,-1.0708,-1.0708,0,0,-1.0385,-1.0435,-1.0435,-1.0451,-1.0486,-1.0499,-1.0511,-1.0536,-1.0546,-1.0567,-1.058,-1.0605,-1.0618,-1.0633,-1.0652,-1.0658,-1.0652,-1.0671,-1.0672,-1.0668,-1.066,-1.0651,-1.065,-1.0664,-1.0664,-1.0663,-1.0659,0,-1.0372,-1.0396,-1.0423,-1.0438,-1.0454,-1.0484,-1.0495,-1.0518,-1.0538,-1.0555,-1.0577,-1.0595,-1.061,-1.0619,-1.0627,-1.0651,-1.0651,-1.0651,-1.0676,-1.0677,-1.0669,-1.0649,-1.0639,-1.0633,-1.0658,-1.0658,-1.0658,0,-1.0358,-1.0381,-1.0397,-1.0433,-1.0441,-1.045,-1.0477,-1.0492,-1.0519,-1.0534,-1.0552,-1.0573,-1.0589,-1.0601,-1.0625,-1.0625,-1.0637,-1.065,-1.065,-1.0654,-1.0667,-1.0653,-1.0631,-1.0631,-1.0658,-1.0658,-1.0658,0,-1.0327,-1.0361,-1.0376,-1.0388,-1.043,-1.0436,-1.0454,-1.0482,-1.0496,-1.0519,-1.0529,-1.0553,-1.0566,-1.0585,-1.0613,-1.0619,-1.0634,-1.0648,-1.0648,-1.0647,-1.065,-1.0649,-1.063,-1.0656,-1.0656,-1.0656,-1.0656,0,-1.0309,-1.0319,-1.0363,-1.0372,-1.0384,-1.0416,-1.0427,-1.0448,-1.0473,-1.0488,-1.0514,-1.0528,-1.0563,-1.0581,-1.0603,-1.062,-1.0626,-1.0639,-1.0644,-1.0637,-1.0635,-1.0645,-1.0647,-1.0655,-1.0655,-1.0655,-1.0656,0,-1.0276,-1.0305,-1.0324,-1.0363,-1.0373,-1.038,-1.0414,-1.0425,-1.0447,-1.0466,-1.0472,-1.0507,-1.053,-1.056,-1.0591,-1.0606,-1.0621,-1.0629,-1.0612,-1.0615,-1.0614,-1.0614,-1.0601,-1.0602,-1.0626,-1.0625,-1.0625,0,-1.0263,-1.0272,-1.0312,-1.0324,-1.0341,-1.036,-1.0375,-1.0407,-1.0421,-1.0455,-1.0462,-1.0487,-1.0509,-1.0544,-1.0572,-1.0597,-1.0607,-1.0601,-1.0611,-1.0604,-1.0609,-1.0608,-1.061,-1.0599,-1.0598,-1.0598,-1.0597,0,-1.0238,-1.0253,-1.0274,-1.03,-1.0317,-1.0339,-1.0363,-1.0371,-1.0408,-1.0424,-1.0448,-1.0464,-1.0498,-1.0523,-1.0552,-1.0571,-1.0591,-1.0594,-1.0596,-1.0588,-1.0578,-1.0585,-1.0606,-1.0594,-1.0595,-1.0595,-1.0595,-1.0595,-1.0216,-1.0226,-1.0256,-1.0279,-1.03,-1.0322,-1.0335,-1.036,-1.038,-1.041,-1.0428,-1.0452,-1.0481,-1.0523,-1.0541,-1.0561,-1.0568,-1.057,-1.0571,-1.0571,-1.0569,-1.0575,-1.0566,-1.0566,-1.0566,-1.0566,-1.0567,0,-1.0194,-1.0215,-1.0236,-1.0269,-1.0287,-1.0305,-1.0332,-1.0346,-1.0367,-1.0393,-1.0414,-1.0443,-1.0468,-1.0499,-1.0527,-1.0537,-1.0547,-1.0543,-1.0543,-1.0547,-1.056,-1.0557,-1.0535,-1.0535,-1.0535,-1.0535,-1.0535,-1.0535,-1.0185,-1.0203,-1.0221,-1.0251,-1.0273,-1.0296,-1.0311,-1.0332,-1.0353,-1.0384,-1.0405,-1.0426,-1.0454,-1.0485,-1.0509,-1.0518,-1.0527,-1.052,-1.0532,-1.0543,-1.0546,-1.0549,-1.0546,-1.0522,-1.0522,-1.0518,-1.0518,-1.0518]}]]